Weather History for Point Salines, Grenada

Change the Weather History Date:

Tuesday, March 20, 2012

  Actual Average Record
Temperature  
Mean Temperature 80 °F -  
Max Temperature 85 °F 84 °F 87 °F (2002)
Min Temperature 75 °F 75 °F 73 °F (1997)
Cooling Degree Days 15    
Growing Degree Days 30 (Base 50)    
Moisture  
Dew Point 74 °F    
Average Humidity 83    
Maximum Humidity 94    
Minimum Humidity 66    
Precipitation  
Precipitation 0.16 in - - ()
Sea Level Pressure  
Sea Level Pressure 29.90 in    
Wind  
Wind Speed 6 mph ()    
Max Wind Speed 14 mph    
Max Gust Speed -    
Visibility 6.0 miles    
Events Rain    
Averages and records for this station are not official NWS values.
T = Trace of Precipitation, MM = Missing Value Source: Averaged Metar Reports

Daily Weather History Graph

Daily Weather History Graph

Search for Another Location

Airport:

Trip Planner

Search our weather history database for the weather conditions in past years. The results will help you decide how hot, cold, wet, or windy it might be!

Date:

Astronomy

Mar. 20, 2012 Rise Set
Actual Time 6:11 AM AST 6:17 PM AST
Civil Twilight 5:49 AM AST 6:39 PM AST
Nautical Twilight 5:25 AM AST 7:03 PM AST
Astronomical Twilight 5:00 AM AST 7:28 PM AST
Moon 4:36 AM AST (3/20) 4:50 PM AST (3/20)
Length of Visible Light 12h 49m
Length of Day
12h 06m
Waning Crescent, 4% of the Moon is Illuminated
Mar 20
Waning Crescent
Mar 22
New
Mar 30
First Quarter
Apr 6
Full
Apr 13
Last Quarter

Hourly Weather History & Observations

Time (AST) Temp. Heat Index Dew Point Humidity Pressure Visibility Wind Dir Wind Speed Gust Speed Precip Events Conditions
12:00 AM 78.8 °F - 73.4 °F 83% 29.92 in 6.2 mi East 4.6 mph - N/A   Mostly Cloudy
1:00 AM 77.0 °F - 73.4 °F 89% 29.89 in 5.0 mi East 3.5 mph - N/A   Mostly Cloudy
2:00 AM 78 °F - 74 °F 84% 29.88 in 5 mi East 4.6 mph - -   Overcast
2:00 AM 77.0 °F - 73.4 °F 89% 29.86 in 5.0 mi East 4.6 mph - N/A   Mostly Cloudy
3:00 AM 77.0 °F - 73.4 °F 89% 29.86 in 6.2 mi East 4.6 mph - N/A   Mostly Cloudy
4:00 AM 77.0 °F - 73.4 °F 89% 29.86 in 6.2 mi East 4.6 mph - N/A   Mostly Cloudy
5:00 AM 77 °F - 74 °F 87% 29.87 in 6 mi East 4.6 mph - -   Widespread Dust
5:00 AM 77.0 °F - 73.4 °F 89% 29.86 in 6.2 mi East 4.6 mph - N/A   Mostly Cloudy
6:00 AM 78.8 °F - 73.4 °F 83% 29.89 in 6.2 mi East 5.8 mph - N/A   Mostly Cloudy
7:00 AM 78.8 °F - 73.4 °F 83% 29.92 in 6.2 mi Variable 3.5 mph - N/A   Mostly Cloudy
8:00 AM 80 °F - 74 °F 78% 29.94 in 9 mi East 5.8 mph - -   Widespread Dust
8:00 AM 78.8 °F - 75.2 °F 89% 29.92 in 6.2 mi East 5.8 mph - N/A   Mostly Cloudy
9:00 AM 82.4 °F 88.2 °F 73.4 °F 74% 29.95 in 6.2 mi East 9.2 mph - N/A   Mostly Cloudy
10:00 AM 82.4 °F 89.5 °F 75.2 °F 79% 29.98 in 6.2 mi East 8.1 mph - N/A   Mostly Cloudy
11:00 AM 84 °F - 74 °F 66% 29.96 in 7 mi East 11.5 mph - -   Widespread Dust
11:00 AM 84.2 °F 92.3 °F 75.2 °F 74% 29.95 in 6.2 mi East 11.5 mph - N/A   Mostly Cloudy
12:00 PM 82.4 °F 88.2 °F 73.4 °F 74% 29.92 in 6.2 mi East 13.8 mph - N/A   Mostly Cloudy
1:00 PM 84.2 °F 90.9 °F 73.4 °F 70% 29.95 in 6.2 mi ESE 13.8 mph - N/A   Mostly Cloudy
2:00 PM 83 °F - 74 °F 68% 29.89 in 9 mi ESE 11.5 mph - -  
2:00 PM 82.4 °F 88.2 °F 73.4 °F 74% 29.89 in 6.2 mi ESE 11.5 mph - N/A   Mostly Cloudy
3:00 PM 82.4 °F 89.5 °F 75.2 °F 79% 29.86 in 6.2 mi ESE 13.8 mph - N/A Rain Light Rain Showers
4:00 PM 82.4 °F 89.5 °F 75.2 °F 79% 29.86 in 6.2 mi ESE 9.2 mph - N/A   Mostly Cloudy
5:00 PM 80.6 °F 86.2 °F 75.2 °F 84% 29.86 in 6.2 mi East 8.1 mph - N/A   Mostly Cloudy
6:00 PM 75.2 °F - 73.4 °F 94% 29.89 in 3.7 mi ESE 12.7 mph - N/A Rain Rain Showers
7:00 PM 75.2 °F - 73.4 °F 94% 29.89 in 5.0 mi East 6.9 mph - N/A   Mostly Cloudy
8:00 PM 76 °F - 74 °F 92% 29.90 in 6 mi East 6.9 mph - -   Widespread Dust
8:00 PM 77.0 °F - 73.4 °F 89% 29.89 in 5.6 mi East 6.9 mph - N/A   Mostly Cloudy
9:00 PM 77.0 °F - 75.2 °F 94% 29.92 in 5.6 mi East 5.8 mph - N/A   Mostly Cloudy
10:00 PM 77.0 °F - 73.4 °F 89% 29.92 in 5.6 mi East 4.6 mph - N/A   Mostly Cloudy
11:00 PM 78 °F - 74 °F 84% 29.94 in 5 mi ENE 5.8 mph - -   Scattered Clouds
11:00 PM 77.0 °F - 73.4 °F 89% 29.92 in 5.0 mi ENE 5.8 mph - N/A   Mostly Cloudy